Weather in Obilnoye

Russia / Republic of Kalmykia     47°30′13″N   44°24′51″E
temp.,
°C
wind,
m/s
gust,
m/s
humid.,
%
clouds,
%
prec.,
mm/h
press.,
hPa
HPBL,
m
15 august, mon
mon1500:00+28ene492568 0.0 1010159
03:00+26ene4102813 0.0 1011190
06:00+26ene612255 0.0 1011364
09:00+33e9121750 0.0 10111012
12:00+37e11121678 0.0 10102598
15:00+37e10111591 0.0 10093169
18:00+36e9121797 0.0 10091849
21:00+32e91522100 0.0 1011739
16 august, tue
tue1600:00+29e9162496 0.0 1012628
03:00+27ene7152014 0.0 1012447
06:00+25ene6132324 0.0 1012382
09:00+32e792082 0.0 1012755
12:00+37e7101673 0.0 10112144
15:00+40e8101389 0.0 10093681
18:00+39ese7101360 0.0 1008956
21:00+34se7141715 0.0 1010423
17 august, wed
wed1700:00+29ene492368 0.0 1010162
03:00+27e4112756 0.0 1010219
06:00+25e384496 2.1 1010204
09:00+32ese610255 2.4 1010785
12:00+37se68185 0.0 10081790
15:00+39se551840 0.0 10062292
18:00+38sse34195 0.0 10061251
21:00+33se8132511 0.0 1007482
18 august, thu
thu1800:00+29se61039100 0.0 1007344
03:00+27se4842100 0.0 1007257
06:00+27sse5948100 0.6 1007356
09:00+29sse6843100 2.8 1008468
12:00+33ese4531100 2.2 10081375
15:00+36se67256 2.6 10072063
18:00+35se1011215 0.3 10071248
21:00+28se71231100 0.9 1010606
19 august, fri
fri1900:00+25se41037100 0.9 1010413
03:00+25ese2336100 1.4 101197
06:00+25e91434100 0.0 1009372
09:00+29se81335100 0.0 10111076
12:00+33se101422100 0.0 10112007
15:00+32se101219100 0.0 10121768
18:00+32ese91120100 0.0 10121136
21:00+29ese81321100 0.0 1013658